User: anonymous   Login
Location: Caltech
(34.1382°N, 118.1253°W)
Time: 05:45:00
(UTC-07:00)
Language:

SEDSat Delta rocket - Orbit

View from above orbital plane
View from above orbital plane
View from above satellite
View from above satellite

Ground track
Ground track

The orbit data is extracted from the following two-line orbital elements,

1 25510U 98061C   17269.23748347  .00000382  00000-0  54166-4 0  9999
2 25510  31.4360 280.6862 0328081 257.1971 188.4970 14.37235642991865
Epoch (UTC): 26 September 2017 05:41:58
Eccentricity: 0.0328081
inclination: 31.4360°
perigee height: 533 km
apogee height: 1002 km
right ascension of ascending node: 280.6862°
argument of perigee: 257.1971°
revolutions per day: 14.37235642
mean anomaly at epoch: 188.4970°
orbit number at epoch: 99186

The dashed part of the orbit path shows where the satellite is in the earth's shadow,  

DLR